Date,TemperatureHighF,TemperatureAvgF,TemperatureLowF,DewpointHighF,DewpointAvgF,DewpointLowF,HumidityHigh,HumidityAvg,HumidityLow,PressureMaxIn,PressureMinIn,WindSpeedMaxMPH,WindSpeedAvgMPH,GustSpeedMaxMPH,PrecipitationSumIn
2013-5-1,81,68,53,64,58,53,99,73,52,29.96,29.83,7,2,0,0.00
2013-5-2,77,65,52,57,54,50,93,67,47,29.99,29.86,7,2,0,0.00
2013-5-3,76,67,58,59,54,42,82,64,43,29.87,29.70,8,3,0,0.00
2013-5-4,72,61,53,54,48,39,99,65,42,29.77,29.67,10,3,0,0.29
2013-5-5,53,50,47,53,50,46,99,99,99,29.75,29.64,10,4,0,1.98
2013-5-6,66,56,51,59,54,51,99,95,76,29.69,29.59,9,4,0,0.22
2013-5-7,70,61,52,60,56,52,99,87,64,29.75,29.66,7,2,0,0.00
2013-5-8,70,62,56,64,59,55,99,91,71,29.80,29.69,6,1,0,0.37
2013-5-9,80,68,56,60,58,54,99,73,46,29.84,29.74,8,2,0,0.00
2013-5-10,68,64,62,64,60,57,99,89,70,29.76,29.63,12,4,0,0.67
2013-5-11,63,58,53,62,55,50,99,90,67,29.75,29.63,8,3,0,0.21
2013-5-12,60,51,41,52,37,31,96,63,37,29.92,29.76,11,3,0,0.00
2013-5-13,66,53,42,38,35,32,72,52,32,29.98,29.90,13,3,0,0.00
2013-5-14,81,63,44,59,49,37,82,61,45,29.95,29.64,11,4,0,0.00
2013-5-15,85,75,67,62,58,50,70,57,38,29.78,29.67,11,6,0,0.00
2013-5-16,72,67,61,66,59,49,99,78,50,29.80,29.69,8,3,0,0.25
2013-5-17,78,68,60,66,63,59,99,84,57,29.84,29.77,6,2,0,0.00
2013-5-18,78,70,64,69,66,63,99,88,68,29.83,29.73,6,2,0,0.06
2013-5-19,83,72,64,73,68,64,99,88,65,29.80,29.70,6,2,0,0.00
2013-5-20,85,74,64,72,68,62,94,80,61,29.83,29.70,7,4,0,0.00
2013-5-21,85,73,65,70,67,62,99,83,52,29.76,29.62,10,4,0,0.37
2013-5-22,77,69,62,67,64,62,99,85,62,29.67,29.56,9,4,0,0.24
2013-5-23,72,64,56,64,60,53,99,88,62,29.81,29.62,9,4,0,0.06
2013-5-24,66,56,48,53,46,43,90,69,46,30.09,29.81,9,4,0,0.00
2013-5-25,67,56,43,50,46,42,97,71,48,30.15,29.98,7,1,0,0.00
2013-5-26,70,62,51,55,52,48,94,72,53,30.08,29.97,5,1,0,0.01
2013-5-27,84,70,56,62,56,51,87,62,38,29.99,29.80,10,3,0,0.00
2013-5-28,86,76,65,65,61,58,87,62,46,29.88,29.75,9,5,0,0.01
2013-5-29,86,76,67,68,64,59,78,65,52,29.92,29.80,9,4,0,0.00
2013-5-30,87,77,68,70,65,61,83,67,50,29.95,29.81,10,5,0,0.00
2013-5-31,84,73,67,71,66,62,99,78,57,29.88,29.76,11,5,0,0.47